{"data":{"norad_id":56827,"epoch":"2026-09-19T22:09:47.301696Z","epoch_age_seconds":167412,"freshness":"FRESH","line1":"1 56827U 23079E   26262.92346414  .00000101  00000+0  13210-4 0  9992","line2":"2 56827  43.0033  90.1258 0001461 271.6379  88.4305 15.27576529182597","mean_motion":15.27576529,"eccentricity":0.0001461,"inclination_deg":43.0033,"raan_deg":90.1258,"arg_perigee_deg":271.6379,"mean_anomaly_deg":88.4305,"bstar":1.321e-5,"rev_number":18259,"period_min":94.266962909064,"perigee_km":482.0570686749,"apogee_km":484.06191028913,"semimajor_km":6861.196489482,"source":"CELESTRAK","updated_at":"2026-09-21T09:00:33.515493Z"}}